This demonstration page uses our WeatherBlox Daily Observations layout. Learn more.

39.92423, -83.80882

Hourly Observations for June 3, 2016

Temp ( °F °C ) Dew Point ( °F °C ) Humidity (%) Winds ( mph kmh ) Pressure ( in mb ) Visibility ( mi km ) Precip ( " mm )
12:56 am 00:56 Mostly Cloudy 68 20 67 19.4 96 96 WSW 6 9 30.04 1017 10 16.0934 0 0
1:56 am 01:56 Cloudy 69 20.5 68 20 97 97 SSW 7 11 30.03 1017 10 16.0934 0 0
2:47 am 02:47 Mostly Cloudy with Mist and Fog 68 20 68 20 100 100 SW 8 13 30.03 1017 4 6.43736 0 0
2:56 am 02:56 Mostly Cloudy with Mist and Fog 68 20 68 20 100 100 SW 7 11 30.03 1017 4 6.43736 0 0
3:48 am 03:48 Mostly Cloudy with Mist and Fog 66 19 66 19 100 100 SW 5 7 30.03 1017 3 4.82802 0 0
3:56 am 03:56 Mostly Cloudy with Mist and Fog 67 19.4 67 19.4 100 100 SW 5 7 30.02 1017 2.5 4.02335 0 0
4:31 am 04:31 Cloudy with Mist and Fog 66 19 66 19 100 100 VRB 3 6 30.03 1017 2.5 4.02335 0 0
4:44 am 04:44 Mostly Cloudy with Mist and Fog 66 19 66 19 100 100 W 5 7 30.03 1017 3 4.82802 0 0
4:56 am 04:56 Mostly Clear with Mist and Fog 66 18.8 66 18.8 100 100 Calm 30.02 1017 2.5 4.02335 0 0
5:20 am 05:20 Mostly Cloudy with Mist and Fog 64 18 64 18 100 100 Calm 30.03 1017 1.75 2.816345 0 0
5:34 am 05:34 Mostly Cloudy with Mist and Fog 66 19 66 19 100 100 SW 3 6 30.03 1017 1.25 2.011675 0 0
5:36 am 05:36 Mostly Cloudy with Fog 66 19 66 19 100 100 Calm 30.03 1017 0.5 0.80467 0 0
5:47 am 05:47 Mostly Cloudy with Mist and Fog 66 19 66 19 100 100 Calm 30.03 1017 1 1.60934 0 0
5:56 am 05:56 Cloudy with Mist and Fog 66 18.8 66 18.8 100 100 WSW 3 6 30.03 1017 1 1.60934 0 0
6:03 am 06:03 Cloudy with Fog 64 18 64 18 100 100 W 3 6 30.03 1017 0.5 0.80467 0 0
6:13 am 06:13 Cloudy with Mist and Fog 64 18 64 18 100 100 W 5 7 30.03 1017 1 1.60934 0 0
6:20 am 06:20 Cloudy with Mist and Fog 64 18 64 18 100 100 W 5 7 30.03 1017 1.25 2.011675 0 0
6:24 am 06:24 Cloudy with Mist and Fog 66 19 66 19 100 100 W 5 7 30.03 1017 1.5 2.41401 0 0
6:30 am 06:30 Cloudy with Mist and Fog 66 19 66 19 100 100 WNW 5 7 30.03 1017 1 1.60934 0 0
6:36 am 06:36 Cloudy with Mist and Fog 66 19 66 19 100 100 WNW 6 9 30.03 1017 0.75 1.207005 0 0
6:47 am 06:47 Cloudy with Fog 66 19 66 19 100 100 NW 6 9 30.03 1017 0.25 0.402335 0 0
6:56 am 06:56 Cloudy with Fog 67 19.4 67 19.4 100 100 NW 6 9 30.05 1018 0.25 0.402335 0 0
7:05 am 07:05 Cloudy with Fog 66 19 66 19 100 100 NW 5 7 30.03 1017 0.5 0.80467 0 0
7:14 am 07:14 Cloudy with Mist and Fog 66 19 66 19 100 100 WNW 3 6 30.03 1017 0.75 1.207005 0 0
7:21 am 07:21 Cloudy with Mist and Fog 66 19 66 19 100 100 NW 5 7 30.06 1018 1 1.60934 0 0
7:26 am 07:26 Cloudy with Mist and Fog 66 19 66 19 100 100 NW 3 6 30.03 1017 1.5 2.41401 0 0
7:34 am 07:34 Mostly Cloudy with Mist and Fog 66 19 66 19 100 100 NW 5 7 30.06 1018 3 4.82802 0 0
7:56 am 07:56 Mostly Cloudy 66 18.8 65 18.3 97 97 NNE 3 6 30.06 1018 10 16.0934 0 0
8:56 am 08:56 Sunny 72 22.2 56 13.3 57 57 NE 7 11 30.06 1018 10 16.0934 0 0
9:56 am 09:56 Sunny 75 23.8 56 13.3 52 52 NE 8 13 30.07 1018 10 16.0934 0 0
10:56 am 10:56 Sunny 78 25.5 54 12.2 44 44 NE 6 9 30.07 1018 10 16.0934 0 0
11:56 am 11:56 Sunny 80 26.6 55 12.7 42 42 ENE 6 9 30.07 1018 10 16.0934 0 0
12:56 pm 12:56 Sunny 81 27.2 53 11.6 38 38 E 5 7 30.07 1018 10 16.0934 0 0
1:56 pm 13:56 Sunny 83 28.3 52 11.1 34 34 VRB 3 6 30.06 1018 10 16.0934 0 0
2:56 pm 14:56 Sunny 84 28.8 51 10.5 32 32 VRB 6 9 30.04 1017 10 16.0934 0 0
3:56 pm 15:56 Sunny 85 29.4 52 11.1 32 32 WNW 8 13 30.03 1017 10 16.0934 0 0
4:56 pm 16:56 Sunny 85 29.4 51 10.5 31 31 VRB 6 9 30.02 1017 10 16.0934 0 0
5:56 pm 17:56 Sunny 86 30 50 10 29 29 W 5 7 30.01 1016 10 16.0934 0 0
6:56 pm 18:56 Sunny 83 28.3 54 12.2 37 37 NW 6 9 30 1016 10 16.0934 0 0
7:56 pm 19:56 Sunny 80 26.6 55 12.7 42 42 N 3 6 30.01 1016 10 16.0934 0 0
8:56 pm 20:56 Sunny 79 26.1 55 12.7 43 43 N 3 6 30.01 1016 10 16.0934 0 0
9:56 pm 21:56 Clear 75 23.8 59 15 58 58 Calm 30.01 1016 10 16.0934 0 0
10:56 pm 22:56 Clear 73 22.7 60 15.5 64 64 SSW 5 7 30.02 1017 10 16.0934 0 0
11:56 pm 23:56 Mostly Clear 71 21.6 62 16.6 73 73 ENE 5 7 30.02 1017 10 16.0934 0 0

Powered by AerisWeather